Weather Roundup
Issued by NWS Chicago, IL

Home | Current Version | Previous Version | Graphics & Text | Print | Product List | Glossary On
Versions: 1 2 3 4 5 6 7 8 9 10 11 12 13 14 15 16 17 18 19 20 21 22 23 24 25 26 27 28 29 30 31 32 33 34 35 36 37 38 39 40 41 42 43 44 45 46 47 48 49 50
000
NZUS59 KLOT 020610
HRRLOT

CHICAGO AREA WEATHER ROUNDUP
NATIONAL WEATHER SERVICE CHICAGO/ROMEOVILLE IL
100 AM CDT TUE SEP 02 2014

NOTE: "FAIR" INDICATES FEW OR NO CLOUDS BELOW 12,000 FEET WITH NO
SIGNIFICANT WEATHER AND/OR OBSTRUCTIONS TO VISIBILITY.

* THESE STATIONS ARE NOT UNDER NWS QUALITY CONTROL. THEY ALSO MAY NOT
  REPORT WEATHER SUCH AS PRECIPITATION OR FOG.

ILZ005-006-012>014-019>023-020700-
NORTHEAST ILLINOIS

CITY           SKY/WX    TMP DP  RH WIND       PRES   REMARKS
OHARE          MOCLDY    71  65  81 SW3       29.86S
6HR MIN TEMP:  70; 6HR MAX TEMP:  79; 6HR PCP:  0.26;

MIDWAY         CLOUDY    75  68  78 SW7       29.87R
6HR MIN TEMP:  75; 6HR MAX TEMP:  81;

AURORA           N/A     69  66  90 SW6       29.88R
6HR MIN TEMP:  69; 6HR MAX TEMP:  78; 6HR PCP: TRACE;

LANSING*         N/A    N/A N/A N/A MISG        N/A
JOLIET*          N/A     70  65  83 CALM      29.88F
WAUKEGAN         N/A     67  65  93 SW3       29.85R
6HR MIN TEMP:  67; 6HR MAX TEMP:  77; 6HR PCP: TRACE;

DUPAGE AIRPORT   N/A     69  66  90 S3        29.86F
6HR MIN TEMP:  68; 6HR MAX TEMP:  78; 6HR PCP:  0.05;

WHEELING         N/A     72  67  84 W3        29.87F
6HR MIN TEMP:  71; 6HR MAX TEMP:  80; 6HR PCP:  0.06;

KANKAKEE*        N/A     69  67  90 CALM      29.88F
MORRIS*          N/A     70  67  90 W5        29.87F
LEWIS AIRPORT* MOCLDY    70  67  90 SW6       29.87F
NORTHERLY IS     N/A     75  66  73 W7          N/A
$$

WIZ051-052-058>065-066-070>072-020700-
SOUTHEAST WISCONSIN

CITY           SKY/WX    TMP DP  RH WIND       PRES   REMARKS
MILWAUKEE      MOCLDY    69  63  81 W6        29.84S
6HR MIN TEMP:  69; 6HR MAX TEMP:  74; 6HR PCP: TRACE;

KENOSHA*         N/A     67  65  93 SW5       29.87R
RACINE*          N/A     67  65  93 SW6       29.88R
BURLINGTON       N/A     63  63  99 CALM      29.85R
WAUKESHA         N/A     63  61  94 SW3       29.87R
WEST BEND        N/A     63  59  88 W3        29.85R
$$

INZ001>003-010>013-019-020-020700-
NORTHWEST INDIANA

CITY           SKY/WX    TMP DP  RH WIND       PRES   REMARKS
GARY*            N/A     73  67  79 SW5       29.88R
6HR MIN TEMP:  73; 6HR MAX TEMP:  81;

MICHIGAN CITY* NOT AVBL
RENSSELAER*    NOT AVBL
VALPARAISO       N/A     70  65  84 SW7       29.89F
$$

LMZ740>746-020700-
SOUTHERN LAKE MICHIGAN

STATION/POSITION TIME  SKY/WX   TEMP WIND        PRES    VSBY
                                AIR  DIR/SP/G
                 (UTC)          (F)  (DEG/KT/KT) (MB)    (MI)
HARRISON CRIB    0600            74  260/ 13/ 15   N/A
BURNHAM HARBOR   0600            74  270/  6/  9   N/A
CALUMET HARBOR   0600            73  230/  5/ 10 1010.4R
BURNS HARBOR     NOT AVBL
MICHIGAN CITY    0600            73  200/ 12/ 14   N/A
$$

ABBREVIATIONS USED IN REMARKS
   TC - TEMPERATURE IN CELSIUS
  WCI - WIND CHILL INDEX
   HX - HEAT INDEX
  VSB - VISIBILITY
$$



USA.gov is the U.S. government's official web portal to all federal, state and local government web resources and services.